| time (UTC) | temp F | wind direction | speed MPH | gust MPH | rain 1hr in | rain 24hr in | rain mn in | humidity % | barometer mb |
| 20260506165042 | 53 | 316 | 5.0 | 12.0 | 0.00 | 0.01 | 0.00 | 42 | 1013.6 |
| 20260506164042 | 52 | 276 | 5.0 | 9.0 | 0.00 | 0.01 | 0.00 | 42 | 1013.6 |
| 20260506163042 | 52 | 292 | 5.0 | 10.0 | 0.00 | 0.01 | 0.00 | 42 | 1013.6 |
| 20260506162042 | 53 | 297 | 6.0 | 12.0 | 0.00 | 0.01 | 0.00 | 41 | 1013.2 |
| 20260506161043 | 53 | 293 | 5.0 | 11.0 | 0.00 | 0.01 | 0.00 | 41 | 1013.2 |
| 20260506160042 | 53 | 262 | 6.0 | 12.0 | 0.00 | 0.01 | 0.00 | 40 | 1013.2 |
| 20260506155042 | 53 | 263 | 6.0 | 11.0 | 0.00 | 0.01 | 0.00 | 41 | 1013.2 |
| 20260506154042 | 54 | 280 | 7.0 | 13.0 | 0.00 | 0.01 | 0.00 | 40 | 1013.2 |
| 20260506153042 | 52 | 253 | 6.0 | 9.0 | 0.00 | 0.01 | 0.00 | 40 | 1012.9 |
| 20260506152042 | 53 | 266 | 6.0 | 11.0 | 0.00 | 0.01 | 0.00 | 40 | 1012.9 |
| 20260506151042 | 53 | 257 | 5.0 | 8.0 | 0.00 | 0.01 | 0.00 | 40 | 1012.9 |
| 20260506150042 | 53 | 290 | 5.0 | 9.0 | 0.00 | 0.01 | 0.00 | 40 | 1012.9 |
| 20260506145042 | 53 | 271 | 5.0 | 10.0 | 0.00 | 0.01 | 0.00 | 40 | 1012.9 |
| 20260506144042 | 53 | 296 | 4.0 | 13.0 | 0.00 | 0.01 | 0.00 | 41 | 1012.9 |
| 20260506143042 | 53 | 300 | 4.0 | 7.0 | 0.00 | 0.01 | 0.00 | 41 | 1012.9 |
| 20260506142042 | 52 | 309 | 3.0 | 6.0 | 0.00 | 0.01 | 0.00 | 41 | 1012.6 |
| 20260506141042 | 52 | 316 | 5.0 | 9.0 | 0.00 | 0.01 | 0.00 | 42 | 1012.6 |
| 20260506140042 | 52 | 299 | 4.0 | 7.0 | 0.00 | 0.01 | 0.00 | 43 | 1012.2 |
| 20260506135042 | 51 | 299 | 5.0 | 9.0 | 0.00 | 0.01 | 0.00 | 43 | 1012.2 |
| 20260506134042 | 51 | 333 | 4.0 | 10.0 | 0.00 | 0.01 | 0.00 | 46 | 1012.2 |
| 20260506133042 | 50 | 302 | 4.0 | 7.0 | 0.00 | 0.01 | 0.00 | 47 | 1012.2 |
| 20260506132042 | 50 | 292 | 4.0 | 7.0 | 0.00 | 0.01 | 0.00 | 49 | 1012.2 |
| 20260506131042 | 50 | 286 | 3.0 | 6.0 | 0.00 | 0.01 | 0.00 | 51 | 1012.2 |
| 20260506130042 | 49 | 266 | 3.0 | 6.0 | 0.00 | 0.01 | 0.00 | 52 | 1011.9 |
| 20260506125042 | 49 | 292 | 3.0 | 6.0 | 0.00 | 0.01 | 0.00 | 53 | 1011.9 |
| 20260506124042 | 49 | 309 | 3.0 | 5.0 | 0.00 | 0.01 | 0.00 | 55 | 1011.5 |
| 20260506123042 | 48 | 339 | 2.0 | 4.0 | 0.00 | 0.01 | 0.00 | 55 | 1011.5 |
| 20260506122042 | 47 | 291 | 1.0 | 4.0 | 0.00 | 0.01 | 0.00 | 57 | 1011.5 |
| 20260506121042 | 46 | 317 | 2.0 | 4.0 | 0.00 | 0.01 | 0.00 | 56 | 1011.5 |
| 20260506120042 | 46 | 310 | 2.0 | 4.0 | 0.00 | 0.01 | 0.00 | 57 | 1011.2 |
| 20260506115042 | 46 | 313 | 2.0 | 6.0 | 0.00 | 0.01 | 0.00 | 56 | 1011.2 |
| 20260506114042 | 46 | 279 | 2.0 | 6.0 | 0.00 | 0.01 | 0.00 | 56 | 1011.2 |
| 20260506113042 | 46 | 293 | 2.0 | 4.0 | 0.00 | 0.01 | 0.00 | 57 | 1010.9 |
| 20260506112042 | 45 | 297 | 1.0 | 3.0 | 0.00 | 0.01 | 0.00 | 57 | 1010.5 |
| 20260506111042 | 45 | 275 | 1.0 | 4.0 | 0.00 | 0.01 | 0.00 | 57 | 1010.5 |
| 20260506110042 | 46 | 289 | 1.0 | 3.0 | 0.00 | 0.01 | 0.00 | 58 | 1010.5 |
| 20260506105042 | 46 | 267 | 1.0 | 3.0 | 0.00 | 0.01 | 0.00 | 57 | 1010.2 |
| 20260506104041 | 46 | 263 | 1.0 | 3.0 | 0.00 | 0.01 | 0.00 | 57 | 1010.2 |
| 20260506103042 | 47 | 274 | 2.0 | 4.0 | 0.00 | 0.01 | 0.00 | 56 | 1010.2 |
| 20260506102042 | 47 | 284 | 1.0 | 3.0 | 0.00 | 0.01 | 0.00 | 57 | 1010.2 |
| 20260506101042 | 47 | 297 | 1.0 | 3.0 | 0.00 | 0.01 | 0.00 | 56 | 1010.2 |
| 20260506100042 | 47 | 220 | 1.0 | 2.0 | 0.00 | 0.01 | 0.00 | 57 | 1010.2 |
| 20260506095042 | 47 | 262 | 1.0 | 3.0 | 0.00 | 0.01 | 0.00 | 55 | 1009.8 |
| 20260506094041 | 47 | 261 | 1.0 | 2.0 | 0.00 | 0.01 | 0.00 | 56 | 1010.2 |
| 20260506093042 | 47 | 344 | 1.0 | 2.0 | 0.00 | 0.01 | 0.00 | 57 | 1009.8 |
| 20260506092041 | 47 | 279 | 1.0 | 4.0 | 0.00 | 0.01 | 0.00 | 56 | 1009.8 |
| 20260506091042 | 47 | 307 | 1.0 | 3.0 | 0.00 | 0.01 | 0.00 | 56 | 1009.8 |
| 20260506090041 | 47 | 336 | 1.0 | 2.0 | 0.00 | 0.01 | 0.00 | 57 | 1009.8 |
| 20260506085041 | 47 | 280 | 1.0 | 2.0 | 0.00 | 0.01 | 0.00 | 56 | 1009.8 |
| 20260506084041 | 48 | 301 | 2.0 | 4.0 | 0.00 | 0.01 | 0.00 | 55 | 1009.5 |
| 20260506083041 | 47 | 284 | 2.0 | 4.0 | 0.00 | 0.01 | 0.00 | 55 | 1009.5 |
| 20260506082041 | 48 | 295 | 2.0 | 4.0 | 0.00 | 0.01 | 0.00 | 56 | 1009.5 |
| 20260506081041 | 47 | 312 | 1.0 | 4.0 | 0.00 | 0.01 | 0.00 | 58 | 1009.8 |
| 20260506073041 | 47 | 200 | 0.0 | 1.0 | 0.00 | 0.01 | 0.00 | 68 | 1009.5 |
| 20260506072041 | 47 | 205 | 1.0 | 2.0 | 0.00 | 0.01 | 0.00 | 71 | 1009.8 |
| 20260506071041 | 47 | 194 | 0.0 | 1.0 | 0.00 | 0.01 | 0.00 | 71 | 1009.8 |
| 20260506062041 | 47 | 198 | 1.0 | 2.0 | 0.00 | 0.01 | 0.00 | 84 | 1010.2 |
| 20260506061041 | 47 | 203 | 1.0 | 2.0 | 0.00 | 0.01 | 0.00 | 85 | 1009.8 |
| 20260506051041 | 47 | 203 | 2.0 | 3.0 | 0.00 | 0.03 | 0.00 | 80 | 1010.2 |
| 20260506045041 | 47 | 200 | 1.0 | 3.0 | 0.00 | 0.07 | 0.00 | 79 | 1010.2 |
| 20260506044041 | 47 | 197 | 1.0 | 3.0 | 0.00 | 0.07 | 0.00 | 77 | 1009.8 |
| 20260506043041 | 48 | 201 | 2.0 | 4.0 | 0.00 | 0.09 | 0.00 | 75 | 1010.2 |
| 20260506042041 | 48 | 205 | 2.0 | 4.0 | 0.00 | 0.10 | 0.00 | 75 | 1009.8 |
| 20260506041041 | 47 | 198 | 2.0 | 3.0 | 0.00 | 0.10 | 0.00 | 77 | 1009.5 |
| 20260506040041 | 47 | 191 | 1.0 | 2.0 | 0.00 | 0.20 | 0.10 | 80 | 1009.5 |
| 20260506035041 | 47 | 185 | 0.0 | 1.0 | 0.00 | 0.20 | 0.10 | 79 | 1009.8 |
| 20260506034041 | 47 | 170 | 0.0 | 0.0 | 0.00 | 0.20 | 0.10 | 77 | 1009.8 |
| 20260506033041 | 47 | 176 | 0.0 | 0.0 | 0.00 | 0.20 | 0.10 | 76 | 1010.2 |
| 20260506032041 | 48 | 186 | 0.0 | 1.0 | 0.00 | 0.20 | 0.10 | 74 | 1009.8 |
| 20260506031041 | 48 | 189 | 0.0 | 1.0 | 0.00 | 0.20 | 0.10 | 71 | 1009.8 |
| 20260506030041 | 48 | 195 | 1.0 | 2.0 | 0.00 | 0.20 | 0.10 | 69 | 1010.2 |
| 20260506025041 | 48 | 189 | 1.0 | 1.0 | 0.00 | 0.20 | 0.10 | 69 | 1009.8 |
| 20260506024041 | 48 | 199 | 0.0 | 1.0 | 0.00 | 0.20 | 0.10 | 76 | 1009.8 |
| 20260506023041 | 48 | 187 | 0.0 | 1.0 | 0.00 | 0.20 | 0.10 | 68 | 1009.8 |
| 20260506022041 | 48 | 188 | 1.0 | 1.0 | 0.00 | 0.20 | 0.10 | 67 | 1009.8 |
| 20260506021041 | 49 | 184 | 0.0 | 1.0 | 0.00 | 0.20 | 0.10 | 65 | 1009.8 |
| 20260506020041 | 49 | 194 | 1.0 | 2.0 | 0.00 | 0.20 | 0.10 | 63 | 1009.5 |
| 20260506015041 | 50 | 193 | 0.0 | 1.0 | 0.00 | 0.20 | 0.10 | 60 | 1009.2 |
| 20260506014041 | 50 | 189 | 0.0 | 1.0 | 0.00 | 0.20 | 0.10 | 62 | 1009.2 |
| 20260506013041 | 50 | 188 | 0.0 | 1.0 | 0.00 | 0.20 | 0.10 | 63 | 1009.2 |
| 20260506012041 | 51 | 205 | 1.0 | 3.0 | 0.00 | 0.20 | 0.10 | 54 | 1009.2 |
| 20260506011041 | 52 | 284 | 2.0 | 4.0 | 0.00 | 0.20 | 0.10 | 51 | 1009.2 |
| 20260506010041 | 52 | 222 | 1.0 | 3.0 | 0.00 | 0.20 | 0.10 | 51 | 1009.2 |
| 20260506005041 | 52 | 195 | 1.0 | 3.0 | 0.00 | 0.20 | 0.10 | 54 | 1009.2 |
| 20260506004041 | 53 | 201 | 1.0 | 1.0 | 0.00 | 0.20 | 0.10 | 52 | 1009.2 |
| 20260506003041 | 53 | 218 | 1.0 | 2.0 | 0.00 | 0.20 | 0.10 | 51 | 1009.2 |
| 20260506002041 | 53 | 211 | 1.0 | 2.0 | 0.00 | 0.20 | 0.10 | 51 | 1009.2 |
| 20260506001041 | 53 | 284 | 2.0 | 4.0 | 0.00 | 0.20 | 0.10 | 47 | 1008.5 |
| 20260506000041 | 53 | 263 | 3.0 | 4.0 | 0.00 | 0.20 | 0.10 | 46 | 1008.5 |
| 20260505235041 | 54 | 284 | 2.0 | 4.0 | 0.00 | 0.20 | 0.10 | 49 | 1008.5 |
| 20260505234041 | 54 | 283 | 3.0 | 5.0 | 0.00 | 0.20 | 0.10 | 50 | 1008.5 |
| 20260505233041 | 54 | 256 | 2.0 | 5.0 | 0.00 | 0.20 | 0.10 | 51 | 1008.5 |
| 20260505232041 | 54 | 284 | 2.0 | 6.0 | 0.00 | 0.20 | 0.10 | 52 | 1008.5 |
| 20260505231041 | 54 | 274 | 2.0 | 4.0 | 0.00 | 0.20 | 0.10 | 53 | 1008.8 |
| 20260505230041 | 55 | 267 | 3.0 | 5.0 | 0.00 | 0.20 | 0.10 | 54 | 1008.5 |
| 20260505225041 | 55 | 283 | 3.0 | 5.0 | 0.00 | 0.20 | 0.10 | 56 | 1008.5 |
| 20260505224041 | 55 | 272 | 2.0 | 4.0 | 0.00 | 0.20 | 0.10 | 59 | 1008.5 |
| 20260505223041 | 55 | 286 | 1.0 | 4.0 | 0.00 | 0.20 | 0.10 | 60 | 1008.5 |
| 20260505222041 | 55 | 275 | 2.0 | 4.0 | 0.00 | 0.20 | 0.10 | 61 | 1008.8 |
| 20260505221041 | 55 | 264 | 2.0 | 4.0 | 0.00 | 0.20 | 0.10 | 61 | 1008.5 |
| 20260505220041 | 55 | 218 | 2.0 | 4.0 | 0.00 | 0.20 | 0.10 | 61 | 1008.5 |
| 20260505215041 | 55 | 210 | 1.0 | 2.0 | 0.00 | 0.20 | 0.10 | 63 | 1008.5 |
| 20260505214041 | 55 | 223 | 2.0 | 3.0 | 0.00 | 0.20 | 0.10 | 64 | 1008.5 |
| 20260505213041 | 54 | 213 | 2.0 | 4.0 | 0.00 | 0.20 | 0.10 | 64 | 1008.5 |
| 20260505212041 | 54 | 208 | 2.0 | 4.0 | 0.00 | 0.20 | 0.10 | 64 | 1008.8 |
| 20260505211041 | 54 | 242 | 3.0 | 6.0 | 0.00 | 0.20 | 0.10 | 62 | 1008.8 |
| 20260505210041 | 54 | 246 | 3.0 | 6.0 | 0.00 | 0.20 | 0.10 | 63 | 1008.8 |
| 20260505205041 | 54 | 251 | 3.0 | 7.0 | 0.00 | 0.20 | 0.10 | 62 | 1008.8 |
| 20260505204041 | 54 | 218 | 3.0 | 8.0 | 0.00 | 0.20 | 0.10 | 63 | 1008.8 |
| 20260505203041 | 54 | 213 | 4.0 | 9.0 | 0.00 | 0.20 | 0.10 | 62 | 1009.2 |
| 20260505202041 | 55 | 216 | 3.0 | 7.0 | 0.00 | 0.20 | 0.10 | 62 | 1009.2 |
| 20260505201041 | 55 | 230 | 3.0 | 7.0 | 0.00 | 0.20 | 0.10 | 61 | 1009.2 |
| 20260505200041 | 55 | 252 | 5.0 | 9.0 | 0.00 | 0.20 | 0.10 | 60 | 1009.2 |
| 20260505195041 | 54 | 244 | 4.0 | 9.0 | 0.00 | 0.20 | 0.10 | 60 | 1009.2 |
| 20260505194040 | 55 | 234 | 4.0 | 8.0 | 0.00 | 0.20 | 0.10 | 60 | 1009.2 |